Location: Township of South Roscoe
(37.9570°N, 100.1180°W)
Time: 18:36:33
(UTC+00:00)

AO-7 - Visible Passes

Search period start: 29 June 2022 00:00
Search period end: 09 July 2022 00:00
Orbit: 1439 x 1459 km, 101.9° (Epoch: 28 June)

Date Brightness Start Highest point End Pass type
(mag) Time Alt. Az. Time Alt. Az. Time Alt. Az.
29 Jun ? 09:41:58 10° NE 09:47:48 20° E 09:53:36 10° SE visible
30 Jun ? 10:33:15 10° NNE 10:41:13 47° ESE 10:49:08 10° S visible
01 Jul ? 09:35:22 10° NE 09:40:39 18° E 09:45:55 10° SE visible
02 Jul ? 10:26:19 10° NNE 10:34:08 42° E 10:41:54 10° S visible
03 Jul ? 09:28:52 10° ENE 09:33:30 16° E 09:38:05 10° SE visible
04 Jul ? 10:19:24 10° NNE 10:27:01 38° E 10:34:36 10° SSE visible
05 Jul ? 09:22:34 10° ENE 09:26:19 13° E 09:30:04 10° ESE visible
06 Jul ? 10:12:31 10° NE 10:19:56 34° E 10:27:16 10° SSE visible
07 Jul ? 09:16:37 10° ENE 09:19:09 11° E 09:21:39 10° ESE visible
08 Jul ? 10:05:41 10° NE 10:12:49 30° E 10:19:53 10° SSE visible
